Stations météo

réclame
Mon MeteoGroup
Rouen, France (7037): Température de l'air & dewpoint: 10.07.2018 12:00:00 - 16.07.2018 12:00:00 (CEST)Rouen, France (7037): Température de l'air 5cm: 10.07.2018 12:00:00 - 16.07.2018 12:00:00 (CEST)Rouen, France (7037): Température de l'air -20cm & Température de l'air -100cm: 10.07.2018 12:00:00 - 16.07.2018 12:00:00 (CEST)Rouen, France (7037): Vitesse du vent & gusts: 10.07.2018 12:00:00 - 16.07.2018 12:00:00 (CEST)Rouen, France (7037): Direction du vent: 10.07.2018 12:00:00 - 16.07.2018 12:00:00 (CEST)Rouen, France (7037): reduced air pressure: 10.07.2018 12:00:00 - 16.07.2018 12:00:00 (CEST)Rouen, France (7037): visibility: 10.07.2018 12:00:00 - 16.07.2018 12:00:00 (CEST)Rouen, France (7037): Ensoleillement: 10.07.2018 12:00:00 - 16.07.2018 12:00:00 (CEST)Rouen, France (7037): Quantités de précipitations: 10.07.2018 12:00:00 - 16.07.2018 12:00:00 (CEST)
Date & Time tt [°C] td [°C] tt 5cm [°C] tt -20cm [°C] tt -100cm [°C] ff [km/h] ff [knt] fx [km/h] fx [knt] dd ppp [hPa] vv [km] sd [min] rr [mm]
16.07.2018 12:00:00 - - - - - - - - - - - - - -
16.07.2018 11:00:00 23,2 13,4 28,2 20,1 17,7 10 5 18 10 NW 1014,2 36 60 0,0
16.07.2018 10:00:00 21,5 12,3 24,7 20,1 17,7 7 4 15 8 NW 1014,1 45 60 0,0
16.07.2018 09:00:00 19,6 12,8 22,2 20,2 17,7 10 6 18 10 WNW 1014,0 20 60 0,0
16.07.2018 08:00:00 18,2 12,0 15,6 20,3 17,7 5 3 8 5 NNW 1014,1 33 16 0,0
16.07.2018 07:00:00 16,2 11,4 14,6 20,4 17,7 5 3 12 7 NW 1014,4 56 0 0,0
16.07.2018 06:00:00 16,1 10,4 14,5 20,5 17,7 9 5 13 7 NW 1014,3 59 0 0,0
16.07.2018 05:00:00 16,4 10,7 15,1 20,7 17,7 10 5 18 10 NNW 1014,4 57 0 0,0
16.07.2018 04:00:00 16,1 11,7 12,4 20,8 17,7 10 5 16 9 NNW 1014,8 42 0 0,0
16.07.2018 03:00:00 15,4 10,6 12,1 20,9 17,7 9 5 16 8 WNW 1015,4 42 0 0,0
16.07.2018 02:00:00 16,6 10,0 13,8 21,1 17,7 10 5 16 8 NNW 1015,3 54 0 0,0
16.07.2018 01:00:00 17,4 10,3 15,8 21,2 17,7 9 5 15 8 NNW 1015,5 53 0 0,0
16.07.2018 00:00:00 18,2 10,6 16,8 21,3 17,7 9 5 17 9 NNW 1015,5 54 0 0,0
15.07.2018 23:00:00 19,3 11,8 17,9 21,3 17,7 10 5 19 10 N 1015,4 48 0 0,0
15.07.2018 22:00:00 21,0 12,9 19,7 21,3 17,7 11 6 23 13 N 1014,8 48 15 0,0
15.07.2018 21:00:00 23,6 14,0 23,6 21,3 17,7 15 8 26 14 N 1014,3 7 47 0,0
15.07.2018 20:00:00 26,2 13,3 29,3 21,3 17,7 17 9 26 14 N 1013,8 8 60 0,0
15.07.2018 19:00:00 27,3 12,9 33,5 21,2 17,7 11 6 21 11 N 1013,6 9 60 0,0
15.07.2018 18:00:00 26,2 15,0 23,8 21,0 17,7 11 6 25 13 NNW 1014,1 19 18 0,0
15.07.2018 17:00:00 25,3 13,5 27,3 20,8 17,7 14 8 29 16 NNW 1014,5 32 28 0,0
15.07.2018 16:00:00 28,1 12,8 32,2 20,6 17,7 19 10 29 15 E 1014,2 20 26 0,0
15.07.2018 15:00:00 28,4 12,7 35,7 20,3 17,7 10 6 23 12 N 1014,6 18 55 0,0
15.07.2018 14:00:00 28,2 14,4 32,6 20,1 17,7 9 5 14 8 S 1015,0 26 31 0,0
15.07.2018 13:00:00 28,1 13,6 37,3 19,9 17,7 7 4 16 9 NNE 1015,4 24 60 0,0
15.07.2018 12:00:00 26,5 14,3 34,9 19,8 17,7 7 4 13 7 NW 1015,9 38 60 0,0
15.07.2018 11:00:00 24,4 14,2 30,6 19,8 17,7 7 4 13 7 W 1016,3 43 60 0,0
15.07.2018 10:00:00 22,6 14,2 24,7 19,9 17,7 0 0 12 7 N 1016,6 20 60 0,0
15.07.2018 09:00:00 19,4 14,2 19,6 19,9 17,7 6 4 10 6 N 1016,8 12 60 0,0
15.07.2018 08:00:00 16,7 14,2 14,3 20,1 17,7 9 5 13 7 N 1017,0 6 60 0,0
15.07.2018 07:00:00 15,0 13,5 12,7 20,2 17,7 10 5 15 8 N 1016,7 3,7 12 0,0
15.07.2018 06:00:00 14,3 13,0 10,5 20,3 17,7 11 6 13 7 NNW 1017,0 4,9 0 0,0
15.07.2018 05:00:00 14,8 13,0 11,5 20,5 17,7 9 5 13 7 N 1017,1 11 0 0,0
15.07.2018 04:00:00 16,0 12,9 14,7 20,5 17,7 9 5 14 8 N 1017,2 20 0 0,0
15.07.2018 03:00:00 16,5 12,6 14,5 20,7 17,7 8 5 16 9 N 1017,5 35 0 0,0
15.07.2018 02:00:00 17,3 12,2 15,7 20,8 17,7 8 5 18 10 N 1017,8 45 0 0,0
15.07.2018 01:00:00 18,2 12,0 16,3 20,9 17,7 13 7 19 11 N 1018,1 51 0 0,0
15.07.2018 00:00:00 18,9 11,5 16,9 20,9 17,7 13 7 19 11 NNE 1018,0 60 0 0,0
14.07.2018 23:00:00 20,0 11,7 18,1 21,0 17,7 14 7 19 10 N 1017,7 60 0 0,0
14.07.2018 22:00:00 21,8 12,1 20,0 21,1 17,7 13 7 29 16 NNE 1017,4 52 17 0,0
14.07.2018 21:00:00 23,7 12,3 23,6 21,1 17,7 18 10 32 17 N 1017,3 8 60 0,0
14.07.2018 20:00:00 25,1 13,0 26,6 21,0 17,7 22 12 31 17 N 1017,1 11 60 0,0
14.07.2018 19:00:00 27,2 12,8 28,2 20,9 17,7 12 7 24 13 NNE 1017,0 30 40 0,0
14.07.2018 18:00:00 27,7 13,2 29,5 20,8 17,7 13 7 23 13 NNE 1017,3 47 32 0,0
14.07.2018 17:00:00 26,5 13,3 30,6 20,6 17,7 10 6 20 11 N 1017,6 56 9 0,0
14.07.2018 16:00:00 26,8 11,7 30,5 20,4 17,7 4 2 15 8 NE 1017,9 55 27 0,0
14.07.2018 15:00:00 26,0 12,4 30,7 20,2 17,7 5 3 15 8 S 1018,4 18 43 0,0
14.07.2018 14:00:00 26,0 12,8 29,5 20,0 17,7 4 2 16 9 E 1018,8 42 17 0,0
14.07.2018 13:00:00 25,3 13,5 30,6 19,8 17,7 10 5 17 9 NE 1019,1 33 48 0,0
14.07.2018 12:00:00 24,9 14,4 31,7 19,7 17,7 9 5 17 9 ENE 1019,6 27 56 0,0
14.07.2018 11:00:00 23,7 14,9 31,0 19,7 17,7 8 4 21 11 NE 1020,0 19 60 0,0
14.07.2018 10:00:00 21,9 14,5 25,1 19,7 17,7 6 3 12 7 NE 1020,3 29 60 0,0
14.07.2018 09:00:00 19,9 13,8 21,1 19,8 17,7 7 4 11 6 ENE 1020,5 17 60 0,0
14.07.2018 08:00:00 17,3 13,0 13,6 19,9 17,7 8 5 11 6 NNE 1020,3 15 60 0,0
14.07.2018 07:00:00 14,7 12,6 8,4 20,1 17,7 8 4 10 6 NE 1020,4 16 4 0,0
14.07.2018 06:00:00 13,9 12,5 8,7 20,2 17,7 6 3 11 6 NNE 1020,8 19 0 0,0
14.07.2018 05:00:00 15,5 13,0 13,2 20,3 17,7 10 5 12 7 NNE 1020,6 21 0 0,0
14.07.2018 04:00:00 15,8 13,3 13,7 20,4 17,7 7 4 14 7 NNE 1020,5 24 0 0,0
14.07.2018 03:00:00 16,9 13,8 15,0 20,6 17,7 11 6 17 9 NNE 1020,7 26 0 0,0
14.07.2018 02:00:00 17,0 13,9 14,8 20,6 17,7 10 6 13 7 NNE 1020,9 30 0 0,0
14.07.2018 01:00:00 16,9 13,2 14,6 20,7 17,7 7 4 16 9 N 1021,2 40 0 0,0
14.07.2018 00:00:00 18,1 13,4 16,8 20,8 17,7 11 6 16 9 N 1021,0 42 0 0,0
13.07.2018 23:00:00 18,9 13,3 17,1 20,8 17,7 9 5 19 10 N 1020,7 43 0 0,0
13.07.2018 22:00:00 20,9 13,6 19,3 20,8 17,7 10 6 16 9 N 1020,1 45 0 0,0
13.07.2018 21:00:00 21,9 14,5 23,1 20,8 17,7 10 5 27 14 ENE 1019,6 48 47 0,0
13.07.2018 20:00:00 24,9 14,7 30,7 20,7 17,7 16 9 30 16 NNE 1019,5 15 60 0,0
13.07.2018 19:00:00 24,8 14,3 27,5 20,7 17,7 15 8 31 17 N 1019,2 27 37 0,0
13.07.2018 18:00:00 25,2 13,1 26,3 20,5 17,7 18 10 25 14 N 1019,1 20 14 0,0
13.07.2018 17:00:00 24,8 13,0 27,6 20,3 17,7 15 8 31 17 N 1019,6 39 13 0,0
13.07.2018 16:00:00 26,3 13,1 30,5 20,1 17,7 13 7 22 12 NE 1019,7 53 49 0,0
13.07.2018 15:00:00 24,8 12,7 29,9 19,9 17,7 10 5 24 13 E 1020,3 53 22 0,0
13.07.2018 14:00:00 24,8 12,4 32,6 19,8 17,7 12 7 24 13 NE 1020,5 37 16 0,0
13.07.2018 13:00:00 24,3 12,6 31,1 19,7 17,7 11 6 25 13 NNE 1020,6 28 25 0,0
13.07.2018 12:00:00 23,0 14,0 29,9 19,7 17,7 9 5 16 9 NE 1020,7 31 10 0,0
13.07.2018 11:00:00 21,5 13,9 26,6 19,6 17,7 8 4 17 9 NE 1020,9 33 6 0,0
13.07.2018 10:00:00 21,2 13,6 22,1 19,7 17,7 11 6 21 11 NNE 1020,9 28 21 0,0
13.07.2018 09:00:00 18,6 12,6 20,1 19,7 17,7 11 6 19 10 NNE 1021,2 15 35 0,0
13.07.2018 08:00:00 16,6 13,1 16,0 19,8 17,7 7 4 14 8 NE 1020,9 12 11 0,0
13.07.2018 07:00:00 15,5 13,3 12,3 19,9 17,7 5 3 10 5 N 1021,0 14 0 0,0
13.07.2018 06:00:00 14,8 12,8 12,5 20,0 17,7 4 2 12 7 N 1021,1 14 0 0,0
13.07.2018 05:00:00 15,5 13,3 10,8 20,1 17,7 8 4 11 6 N 1020,9 13 0 0,0
13.07.2018 04:00:00 15,1 13,1 11,9 20,2 17,7 5 3 14 7 N 1021,1 10 0 0,0
13.07.2018 03:00:00 16,3 13,8 14,8 20,3 17,7 10 5 14 8 NNE 1020,8 12 0 0,0
13.07.2018 02:00:00 17,1 14,2 16,1 20,3 17,7 11 6 15 8 NE 1021,0 14 0 0,0
13.07.2018 01:00:00 17,6 14,3 16,7 20,4 17,7 13 7 18 10 NNE 1020,9 16 0 0,0
13.07.2018 00:00:00 17,5 14,2 16,9 20,5 17,7 13 7 19 11 NNE 1020,9 15 0 0,0
12.07.2018 23:00:00 18,6 14,7 17,8 20,5 17,7 14 8 22 12 N 1020,5 19 0 0,0
12.07.2018 22:00:00 19,3 14,8 18,3 20,5 17,7 14 8 27 14 N 1020,2 19 0 0,0
12.07.2018 21:00:00 21,7 13,6 21,5 20,5 17,7 12 7 21 12 N 1019,8 27 0 0,0
12.07.2018 20:00:00 23,1 12,7 24,9 20,4 17,7 11 6 21 11 NNE 1019,6 24 21 0,0
12.07.2018 19:00:00 23,1 12,7 24,1 20,4 17,7 13 7 24 13 NNE 1019,3 20 11 0,0
12.07.2018 18:00:00 23,2 12,8 25,7 20,2 17,7 14 8 27 15 N 1019,4 20 2 0,0
12.07.2018 17:00:00 23,0 12,3 27,2 20,1 17,7 11 6 29 16 NE 1019,5 27 25 0,0
12.07.2018 16:00:00 23,7 13,0 27,3 19,9 17,7 16 9 28 15 NNE 1019,7 30 23 0,0
12.07.2018 15:00:00 23,0 12,6 26,2 19,8 17,7 16 9 29 16 N 1020,0 30 31 0,0
12.07.2018 14:00:00 21,9 12,2 26,5 19,6 17,7 14 8 27 15 N 1020,3 37 13 0,0
12.07.2018 13:00:00 22,8 13,0 28,9 19,4 17,7 14 8 24 13 N 1020,2 46 35 0,0
12.07.2018 12:00:00 21,8 12,1 27,7 19,3 17,7 10 5 22 12 ENE 1020,4 60 52 0,0
12.07.2018 11:00:00 20,8 12,2 26,7 19,3 17,7 9 5 17 9 NNE 1020,4 29 60 0,0
12.07.2018 10:00:00 18,8 11,8 23,5 19,3 17,7 8 4 14 8 NNE 1020,7 29 60 0,0
12.07.2018 09:00:00 16,8 11,5 19,2 19,4 17,7 6 4 11 6 NE 1020,6 20 60 0,0
12.07.2018 08:00:00 14,3 11,3 13,4 19,5 17,7 9 5 16 9 N 1020,5 20 16 0,0
12.07.2018 07:00:00 13,3 11,0 11,7 19,6 17,7 13 7 16 9 NNE 1020,3 18 0 0,0
12.07.2018 06:00:00 12,7 10,9 11,7 19,7 17,7 10 5 13 7 NNE 1020,0 14 0 0,0
12.07.2018 05:00:00 13,1 11,5 11,5 19,8 17,7 11 6 18 10 NNE 1020,0 13 0 0,0
12.07.2018 04:00:00 13,2 11,8 11,6 19,9 17,7 12 7 17 9 NNE 1020,1 11 0 0,0
12.07.2018 03:00:00 13,6 12,0 12,0 20,0 17,7 11 6 16 8 NNE 1020,1 13 0 0,0
12.07.2018 02:00:00 13,9 12,1 12,5 20,1 17,7 10 6 16 9 NNE 1020,3 16 0 0,0
12.07.2018 01:00:00 14,3 11,8 13,0 20,2 17,7 12 7 19 11 NNE 1020,3 24 0 0,0
12.07.2018 00:00:00 14,7 12,0 13,0 20,3 17,7 13 7 18 10 N 1020,3 30 0 0,0
11.07.2018 23:00:00 15,6 12,0 14,2 20,4 17,7 9 5 18 10 N 1020,3 38 0 0,0
11.07.2018 22:00:00 16,8 12,1 15,5 20,4 17,7 10 5 25 13 N 1020,1 46 21 0,0
11.07.2018 21:00:00 18,4 12,2 18,8 20,4 17,7 16 8 31 17 N 1019,8 34 60 0,0
11.07.2018 20:00:00 19,7 12,2 22,8 20,4 17,7 18 10 33 18 N 1019,4 12 60 0,0
11.07.2018 19:00:00 20,7 12,1 24,8 20,3 17,7 21 11 34 19 N 1019,3 15 58 0,0
11.07.2018 18:00:00 21,2 12,1 23,7 20,2 17,7 19 11 34 19 N 1019,2 20 43 0,0
11.07.2018 17:00:00 21,0 11,9 24,7 20,1 17,7 18 10 31 17 NNE 1019,5 22 31 0,0
11.07.2018 16:00:00 21,4 12,0 25,6 20,0 17,7 18 10 32 17 N 1019,7 26 19 0,0
11.07.2018 15:00:00 19,9 12,2 21,7 19,9 17,7 19 11 31 17 N 1020,1 34 2 0,0
11.07.2018 14:00:00 19,3 12,3 22,4 19,8 17,7 19 10 27 15 N 1020,3 35 14 0,0
11.07.2018 13:00:00 19,8 13,3 21,8 19,8 17,7 13 7 25 13 N 1020,3 30 14 0,0
11.07.2018 12:00:00 18,2 12,6 21,4 19,8 17,7 9 5 19 10 N 1020,7 18 1 0,0
11.07.2018 11:00:00 18,0 12,9 20,8 19,8 17,7 10 5 20 11 NNW 1020,8 29 0 0,0
11.07.2018 10:00:00 16,8 12,7 18,1 19,9 17,7 14 8 22 12 N 1021,0 45 0 0,0
11.07.2018 09:00:00 16,0 12,4 16,7 20,0 17,7 13 7 28 15 N 1021,1 50 1 0,0
11.07.2018 08:00:00 15,5 11,9 15,6 20,0 17,7 14 8 22 12 N 1021,1 31 1 0,0
11.07.2018 07:00:00 15,3 12,1 14,3 20,2 17,7 9 5 12 6 NNW 1020,9 34 13 0,0
11.07.2018 06:00:00 14,7 11,7 14,4 20,2 17,7 6 3 12 6 NNW 1020,9 38 0 0,0
11.07.2018 05:00:00 14,9 11,9 14,6 20,3 17,7 6 4 11 6 NNW 1021,0 41 0 0,0
11.07.2018 04:00:00 15,1 11,5 14,8 20,4 17,7 8 4 14 8 N 1021,1 43 0 0,0
11.07.2018 03:00:00 15,4 11,4 14,8 20,6 17,7 8 4 22 12 N 1021,1 44 0 0,0
11.07.2018 02:00:00 15,2 11,2 12,4 20,7 17,7 12 7 19 11 N 1021,4 46 0 0,0
11.07.2018 01:00:00 13,8 10,2 10,3 20,8 17,7 11 6 16 9 N 1021,7 53 0 0,0
11.07.2018 00:00:00 14,3 9,7 9,5 20,9 17,7 9 5 14 8 N 1022,0 55 0 0,0
10.07.2018 23:00:00 14,4 9,0 10,0 21,0 17,6 6 3 16 9 NNE 1022,0 55 0 0,0
10.07.2018 22:00:00 16,4 9,6 14,8 21,1 17,6 10 5 26 14 NNE 1021,4 53 22 0,0
10.07.2018 21:00:00 18,4 9,5 19,1 21,1 17,6 18 10 27 15 NNE 1021,4 31 32 0,0
10.07.2018 20:00:00 18,6 9,1 20,3 21,1 17,6 17 9 26 14 NNE 1021,1 55 20 0,0
10.07.2018 19:00:00 20,1 9,3 23,2 21,0 17,6 16 9 35 19 N 1020,8 52 44 0,0
10.07.2018 18:00:00 19,7 9,0 24,2 20,9 17,6 16 9 34 18 N 1021,1 20 42 0,0
10.07.2018 17:00:00 20,0 9,3 24,2 20,7 17,6 18 10 35 19 N 1021,4 22 20 0,0
10.07.2018 16:00:00 20,3 9,2 24,2 20,6 17,6 18 10 32 17 N 1021,6 17 41 0,0
10.07.2018 15:00:00 20,9 9,5 25,3 20,4 17,6 20 11 36 20 N 1021,5 20 47 0,0
10.07.2018 14:00:00 20,4 8,4 25,7 20,2 17,6 18 10 35 19 N 1021,5 20 50 0,0
10.07.2018 13:00:00 20,0 10,1 23,2 20,1 17,6 16 9 38 21 N 1021,7 33 40 0,0
10.07.2018 12:00:00 19,6 10,0 24,9 20,1 17,6 15 8 31 17 N 1022,0 39 56 0,0

tt = Température de l'air
td = dewpoint
tt 5cm = Température de l'air 5cm
tt -20cm = Température de l'air -20cm
tt -100cm = Température de l'air -100cm
ff = Vitesse du vent
fx = gusts
dd = Direction du vent
ppp = reduced air pressure
vv = visibility
sd = Ensoleillement
rr = Quantités de précipitations

stations d'obs. à proximité